Home   Weather   Macon   Past weeks

Flag for USA Past Weather in Macon, Georgia, USA — Yesterday and Last 2 Weeks

Now
76 °F

Clear.


Feels Like: 76 °F
Forecast: 74 / 91 °F
Wind: 5 mph from West

Location: Middle Georgia Regional Airport

Current Time: Jul 23, 2017 at 6:47:08 am

Latest Report: Jul 23, 2017 at 5:53 am


Visibility: 10 mi

Pressure: 29.94 "Hg

Humidity: 88%

Dew Point: 72 °F

Location of MaconLocation

Past Weather in Macon — Graph

°F

Macon Temperature Yesterday

Maximum temperature yesterday: 94 °F (at 4:53 pm)
Minimum temperature yesterday: 73 °F (at 3:53 am)
Average temperature yesterday: 82 °F

High & Low Weather Summary for the Past Weeks

 TemperatureHumidityPressure
High98 °F (Jul 21, 4:53 pm)97% (Jul 9, 8:27 am)30.20 "Hg (Jul 9, 8:27 am)
Low71 °F (Jul 9, 3:01 am)36% (Jul 21, 4:53 pm)29.91 "Hg (Jul 16, 4:53 pm)
Average81 °F75%30.05 "Hg
* Reported Jul 8 4:53 am — Jul 23 4:53 am, Macon. Weather by CustomWeather, © 2017

Note: Actual official high and low records may vary slightly from our data, if they occured in-between our weather recording intervals... More about our weather records

Advertising

Macon Weather History for the Previous 24 Hours

Scroll right to see more
 ConditionsComfort  
Time TempWeatherWind HumidityBarometerVisibility
4:53 am
Sun, Jul 23
76 °FClear.7 mph88%29.92 "Hg10 mi
3:53 am76 °FClear.5 mph88%29.93 "Hg10 mi
2:53 am78 °FClear.3 mph82%29.94 "Hg10 mi
1:53 am79 °FClear.5 mph79%29.95 "Hg10 mi
12:53 am80 °FClear.8 mph76%29.95 "Hg10 mi
11:53 pm
Sat, Jul 22
80 °FClear.3 mph76%29.96 "Hg10 mi
10:53 pm82 °FClear.3 mph72%29.96 "Hg10 mi
9:53 pm81 °FClear.3 mph79%29.95 "Hg10 mi
8:53 pm83 °FClear.No wind72%29.95 "Hg10 mi
7:53 pm86 °FPassing clouds.No wind65%29.93 "Hg10 mi
6:53 pm89 °FSunny.6 mph55%29.94 "Hg10 mi
5:53 pm93 °FSunny.9 mph50%29.92 "Hg10 mi
4:53 pm94 °FPassing clouds.7 mph49%29.93 "Hg10 mi
3:53 pm93 °FPassing clouds.6 mph50%29.94 "Hg10 mi
2:53 pm92 °FSunny.7 mph52%29.97 "Hg10 mi
1:53 pm90 °FSunny.No wind57%30.00 "Hg10 mi
12:53 pm90 °FSunny.8 mph56%30.02 "Hg10 mi
11:53 am88 °FSunny.8 mph57%30.03 "Hg10 mi
10:53 am85 °FSunny.5 mph65%30.05 "Hg10 mi
9:53 am81 °FSunny.5 mph74%30.06 "Hg10 mi
9:00 am77 °FPassing clouds.6 mph85%30.06 "Hg10 mi
8:42 am76 °FScattered clouds.7 mph88%30.06 "Hg9 mi
8:04 am75 °FPartly sunny.6 mph90%30.05 "Hg9 mi
6:53 am73 °FSunny.3 mph94%30.01 "Hg7 mi
Weather by CustomWeather, © 2017

See weather overviewHow to use our weather pages